SPEO2: Bird Creek, Sperry, OK

Data processed at Sat Mar 10 2018 23:08


All information presented herein is the property of the government of the United States of America and may be revised or deleted at any time without prior notice.
Dissemination of this information without the expressed written consent of the Public Affairs Office, Tulsa District U.S. Army Corps of Engineers is strictly prohibited.
These data are gathered electronically and, as presented, have not undergone any form of quality control. These data are not guaranteed to be valid or correct.
Go to home page.
Go to station list.

Upstream stations:

Downstream station:
Previous Day
Next Day
Current Day
    
SHEF ID:       SPEO2     Bird Creek near Sperry, OK
STATION TYPE:  

               PRECIP     STAGE  STAGE(2)  RIV-FLOW  WTR-TEMP   DIS-OXY        PH   CONDUCT  BAT-LOAD
                   in        ft        ft       cfs         F      mg/l        su   umho/cm      volt
              Ccp-Rev   Ccp-Rev   Ccp-Rev   Ccp-Rev   Ccp-Rev   Ccp-Rev   Ccp-Rev   Ccp-Rev   Ccp-Rev
(US/Central)
03/08 00:00      0.00      1.93      1.91       143     52.63     10.21      8.34       371     12.01
03/08 01:00      0.00      1.92      1.92       141     52.07     10.17      8.33       371     12.01
03/08 02:00      0.00      1.92      1.91       141     51.42     10.10      8.31       371     12.01
03/08 03:00      0.00      1.92      1.91       141     50.76     10.07      8.30       371     12.01
03/08 04:00      0.00      1.92      1.91       141     50.16     10.05      8.29       370     11.93
03/08 05:00      0.00      1.92      1.91       141     49.62     10.02      8.28       371     11.93
03/08 06:00      0.00      1.92      1.91       141     49.15     10.08      8.26       370     11.93
03/08 07:00      0.00      1.91      1.91       138     48.76      9.97      8.28       373     11.93
03/08 08:00      0.00      1.92      1.91       141     48.43     10.13      8.28       370     11.93
03/08 09:00      0.00      1.91      1.90       138     48.29      9.92      8.28       369     12.01
03/08 10:00      0.00      1.91      1.90       138     48.43     10.27      8.29       368     12.49
03/08 11:00      0.00      1.91      1.89       138     48.72     10.35      8.30       368     12.57
03/08 12:00      0.00      1.91      1.88       138     49.17     10.43      8.31       366     12.65
03/08 13:00      0.00      1.90      1.87       135     49.64     10.50      8.32       365     12.33
03/08 14:00      0.00      1.90      1.86       135      ----      ----      ----      ----     12.41
03/08 15:00      0.00      1.88      1.86       129     50.52     10.95      8.02       365     12.41
03/08 16:00      0.00      1.88      1.85       129     50.90     10.97      8.07       367     12.57
03/08 17:00      0.00      1.87      1.84       127     51.19     10.99      8.09       367     12.49
03/08 18:00      0.00      1.86      1.82       124     51.40     11.03      8.10       368     12.33
03/08 19:00      0.00      1.84      1.82       119     51.62     10.97      8.79       367     12.17
03/08 20:00      0.00      1.84      1.81       119     51.96     10.92      9.20       366     12.17
03/08 21:00      0.00      1.82      1.80       114     52.27     10.90      9.20       367     12.17
03/08 22:00      0.00      1.81      1.79       111     52.50     10.87      9.13       366     12.09
03/08 23:00      0.00      1.80      1.78       109     52.57     10.87      9.04       366     12.09